www.pogodaiklimat.ru

Погода и климат >> Архив погоды >> Россия >> Свердловская область >> Ирбит


ПОГОДА в Ирбите

  • Прогноз погоды в Ирбите
  • Монитор погоды в Ирбите
  • Климат города

АРХИВ ПОГОДЫ в Ирбите

Время (UTC), дата Ветер
(напр.,м/с)
 
Видим.   Явления Облачность Т
(С)
Тd
(С)
f
(%)
Тe
(С)
Тes
(С)
Комфортность P
(гПа)
Po
(гПа)
Тmin
(С)
Tmax
(С)
R
(мм)
R24
(мм)
S
(см)
09 10.12 СЗ 2 3000 м снег 10/0
[As op]
-9.1 -11.7 81 -14 -13 1017.1 1007.4
12 10.12 С 2 50 км {снег} 9/6 600 м
[Sc Ac trans Ci sp]
-9.5 -12.4 79 -14 -14 1019.2 1009.5
15 10.12 СЗ 2 15 км слабый снег 10/10 600 м
[Sc]
-10.1 -12.9 80 -15 -15 1020.9 1011.1 -9.1 1
18 10.12 З 1 10 км слабый снег 10/3 600 м
[Sc As op]
-11.0 -13.0 85 -13 -13 1021.9 1012.1
21 10.12 СЗ 1 30 км {снег} 10/10 600 м
[Sc]
-10.8 -12.6 87 -13 -13 1023.5 1013.7
00 11.12 СЗ 1 30 км {снег} 10/10 600 м
[Sc]
-11.9 -13.8 86 -14 -14 1025.0 1015.1
03 11.12 СЗ 1 15 км слабый снег 10/0
[As op]
-13.4 -15.4 85 -16 -16 1026.8 1016.9 -13.5 0.5 10
06 11.12 СЗ 3 50 км слабый снег 10/10 600 м
[Sc]
-12.5 -15.0 82 -19 -19 1028.3 1018.4 -14.7
09 11.12 С 2 20 км слабый снег 6/6 600 м
[Sc]
-12.8 -15.8 78 -17 -17 1029.8 1019.8
12 11.12 С 1 9000 м слабый снег 10/8 600 м
[Sc Ac As]
-13.4 -15.8 82 -16 -16 1031.4 1021.4
15 11.12 СЗ 1 20 км слабый снег 10/10 600 м
[Sc]
-13.5 -16.1 81 -16 -16 1032.8 1022.8 -12.2 0.0
18 11.12 С 1 50 км слабый снег 10/10 600 м
[Sc]
-13.0 -15.6 81 -15 -15 1033.8 1023.8
21 11.12 С 1 50 км {снег} 6/6 600 м
[Sc]
-13.6 -15.8 83 -16 -16 1034.4 1024.4
00 12.12 Ю 1 50 км {снег} 9/9 600 м
[Sc]
-13.7 -15.8 84 -16 -16 1034.8 1024.8
03 12.12 Ю 2 50 км слабый снег 10/4 600 м
[Sc Cs]
-15.8 -17.9 84 -21 -21 1035.9 1025.8 -16.1 0.0 11
06 12.12 Ю 1 14 км {снег} 8/4 600 м
[Sc Ci fib]
-15.7 -18.3 80 -18 -18 1036.6 1026.5 -17.6
09 12.12 ЮЗ 1 50 км 5/3
[Sc Ac trans Ci fib]
-13.4 -16.6 77 -16 -15 1037.0 1027.0
12 12.12 Ю 1 20 км 3/0
[Ci fib]
-16.2 -18.1 85 -19 -19 1037.7 1027.5
15 12.12 ЮВ 2 17 км 5/0
[Ci sp]
-16.8 -19.0 83 -22 -22 1038.3 1028.1 -13.4 0.0
18 12.12 ЮЗ 1 16 км 3/0
[Ci sp]
-17.1 -19.1 84 -20 -20 1039.0 1028.8
21 12.12 ЮЗ 1 20 км 3/0
[Ci sp]
-18.3 -20.3 84 -21 -21 1039.0 1028.7
00 13.12 штиль 0 20 км ясно -18.6 -20.9 82 -19 -19 1039.2 1029.0
03 13.12 Ю 1 20 км ясно -19.8 -22.2 81 -23 -23 1039.7 1029.4 -21.2 11
06 13.12 штиль 0 20 км ясно -15.9 -18.2 82 -16 -16 1040.0 1029.8
09 13.12 штиль 0 20 км ясно -14.0 -16.5 81 -14 -14 1039.4 1029.3
12 13.12 ЮВ 3 18 км ясно -15.1 -17.3 83 -22 -22 1039.3 1029.1
15 13.12 Ю 2 20 км ясно -15.0 -17.3 83 -20 -20 1039.1 1029.0 -13.9
18 13.12 Ю 2 30 км ясно -15.2 -17.8 80 -20 -20 1038.2 1028.1
21 13.12 Ю 2 50 км 3/0
[Ci fib]
-15.5 -18.3 79 -21 -21 1037.7 1027.6
00 14.12 ЮЗ 3 50 км 4/0
[Ci fib]
-15.2 -18.3 77 -22 -22 1037.2 1027.0
03 14.12 ЮЗ 3 30 км 8/0
[Ci fib]
-15.1 -18.0 78 -22 -22 1036.4 1026.3 -15.8 11
06 14.12 Ю 4 20 км 9/6 600 м
[Sc Ac trans Ci sp]
-12.9 -16.3 76 -20 -20 1035.9 1025.9
09 14.12 Ю 2 20 км 10/0
[As op]
-10.8 -14.6 74 -15 -15 1034.9 1024.9
12 14.12 Ю 4 20 км 9/3 600 м
[Sc Ac trans Ci sp]
-9.1 -13.1 73 -16 -16 1034.4 1024.6
15 14.12 ЮЗ 3 20 км 10/0
[As op]
-8.4 -12.3 73 -14 -14 1034.5 1024.7 -8.4
18 14.12 ЮЗ 4 15 км слабый снег 10/0
[As op]
-6.9 -10.8 74 -13 -13 1034.1 1024.3
21 14.12 ЮЗ 4 20 км {снег} 10/0
[As op]
-6.5 -8.9 83 -13 -13 1034.1 1024.3
00 15.12 ЮЗ 3 10 км слабый снег 10/0
[As op]
-4.8 -7.6 81 -10 -10 1034.0 1024.3
03 15.12 ЮЗ 4 10 км слабый снег 10/0
[As op]
-3.9 -7.2 78 -10 -10 1035.1 1025.5 -8.3 0.6 9
06 15.12 ЮЗ 4 50 км {снег} 10/0
[Ac As]
-5.0 -9.8 69 -11 -11 1036.0 1026.2
09 15.12 ЮЗ 4 50 км 9/3 600 м
[Sc Ci sp]
-5.8 -11.6 64 -12 -12 1036.1 1026.4
12 15.12 ЮЗ 4 50 км 8/3 600 м
[Sc Cs]
-7.8 -13.4 64 -14 -14 1036.4 1026.6
15 15.12 ЮЗ 4 50 км позёмок {метель} 4/4 600 м
[Sc]
-8.7 -14.2 64 -15 -15 1036.9 1027.0 -3.9
18 15.12 ЮЗ 3 50 км {метель} 3/3 600 м
[Sc]
-7.3 -13.3 62 -13 -13 1036.4 1026.6
21 15.12 ЮЗ 4 50 км ясно -7.3 -13.4 62 -14 -14 1036.5 1026.6
00 16.12 ЮЗ 3 50 км ясно -7.4 -13.6 61 -13 -13 1037.1 1027.3
03 16.12 ЮЗ 2 50 км 3/0
[Ci fib]
-6.4 -13.5 57 -10 -10 1037.3 1027.5 -10.2 9
06 16.12 ЮЗ 3 50 км 10/0
[Cs]
-5.9 -13.8 54 -11 -11 1037.8 1028.0
09 16.12 ЮЗ 3 50 км 6/0
[Ci fib]
-4.3 -13.3 49 -9 -9 1037.9 1028.2
12 16.12 ЮЗ 2 50 км 10/0
[Cc]
-6.0 -14.1 53 -10 -10 1038.7 1028.9
15 16.12 ЮЗ 2 50 км 10/0
[Ci fib]
-8.8 -15.1 60 -13 -13 1039.3 1029.4 -4.1
18 16.12 З 1 50 км 10/0
[Ci fib]
-10.5 -15.4 67 -13 -13 1039.3 1029.3
21 16.12 Ю 1 30 км 10/0
[Ac trans Ci fib]
-12.2 -16.7 69 -14 -14 1039.2 1029.1
00 17.12 З 1 30 км 8/0
[Ac trans Ci fib]
-14.7 -18.1 75 -17 -17 1039.7 1029.6
03 17.12 штиль 0 20 км 10/0
[Ac trans Ci fib]
-14.3 -17.9 74 -14 -14 1039.5 1029.4 -15.5 9
06 17.12 штиль 0 20 км 4/0
[Ci fib]
-13.7 -18.4 68 -14 -13 1039.9 1029.8 -16.0

 

Местоположение метеостанции Ирбит (Свердловская область, Россия): широта 57.62 долгота 62.97 высота над уровнем моря 74 м.

В архиве по умолчанию представлена погода в Ирбите за последнюю неделю. Архивные данные за месяц целиком и за предыдущие месяцы, начиная с января 2011 года, Вы можете получить, выбрав интересующий диапазон дат из раскрывающегося списка и нажав кнопку "Ввод!".

Внимание! Время в таблицах - всемирное. Для получения местного времени необходимо прибавить поправку, которая в Ирбите равна 5 ч.

Смотрите также архив погоды в соседних городах и на ближайших метеорологических станциях:

Погода в Туринске (Свердловская область, Россия) (64 км)
Погода в Артемовском (Свердловская область, Россия) (69 км)
Погода в Алапаевске (Свердловская область, Россия) (80 км)
Погода в Камышлове (Свердловская область, Россия) (87 км)
Погода в Тугулыме (Свердловская область, Россия) (119 км)
Погода в Таборах (Свердловская область, Россия) (135 км)
Погода в Тавде (Свердловская область, Россия) (145 км)
Погода в Каменск-Уральском (Свердловская область, Россия) (148 км)
Погода в Далматово (Курганская область, Россия) (150 км)
Погода в Верхнем Дуброво (Свердловская область, Россия) (151 км)

Пояснения к столбцам:

Ветер - указаны скорость ветра в м/с - средняя за 10 мин, порывы в срок и между сроками (в фигурных скобках) и направление, откуда дует ветер: С - северный, СВ - северо-восточный, В - восточный, ЮВ - юго-восточный, Ю - южный, ЮЗ - юго-западный, З - западный, СЗ - северо-западный.
Видимость - горизонтальная дальность видимости в метрах или километрах. При видимости от 1 до 10 км при отсутствии осадков обычно наблюдается дымка, при ухудшении видимости до 1 км и менее - туман. В сухую погоду видимость может ухудшаться дымом, пылью или мглою.
Явления - указаны атмосферные явления, наблюдавшиеся в срок или в последний час перед сроком; фигурными скобками обозначены явления, наблюдавшиеся между сроками (за 1-3 часа до срока); квадратными скобками обозначены град или гололедные отложения с указанием их диаметра в мм.
Облачность - указаны через наклонную черту общая и нижняя облачность в баллах и высота нижней границы облаков в метрах; квадратными скобками обозначены формы облаков: Ci - перистые, Cs - перисто-слоистые, Cc - перисто-кучевые, Ac - высококучевые, As - высокослоистые, Sc - слоисто-кучевые, Ns - слоисто-дождевые, Cu - кучевые, Cb - кучево-дождевые. Подробнее классификацию облаков см. в Атласе облаков (PDF).
T - Температура воздуха - температура, измеренная на высоте 2 м над землей.
Td - Температура точки росы - температура, при понижении до которой содержащийся в воздухе водяной пар достигнет насыщения.
f - Относительная влажность воздуха - влажноcть воздуха, измеренная на высоте 2 м над землей.
Te - Эффективная температура - температура, которую ощущает одетый по сезону человек в тени. Характеристика душности погоды. При расчете учитывается влияние влажности воздуха и скорости ветра на теплоощущения человека.
Tes - Эффективная температура на солнце - температура, которую ощущает человек, с поправкой на солнечный нагрев. Характеристика знойности погоды. Зависит от высоты солнца над горизонтом, облачности и скорости ветра. Ночью, в пасмурную погоду, а также при ветре 12 м/с и более поправка равна нулю.
P - Атмосферное давление - приведенное к уровню моря атмосферное давление.
Po - Атмосферное давление - измеренное на уровне метеостанции атмосферное давление.
Tmin - Минимальная температура - минимум температуры воздуха на высоте 2 м над землей.
Tmax - Максимальная температура - максимум температуры воздуха на высоте 2 м над землей.
R - Количество осадков - Количество выпавших осадков за период времени, мм. При наведении курсора мыши на число - период времени, за который выпало указанное количество осадков.
R24 - Количество осадков - Количество выпавших осадков за 24 часа, мм.
S - Снежный покров - Высота снежного покрова, см. При наведении курсора мыши на число - состояние снежного покрова и степень покрытия местности в баллах.